User: anonymous   Login
Location: Hopkins Observatory
(42.6965°N, 73.1843°W)
Time: 06:14:44
(UTC-04:00)
Language:

RS-15 - Orbit

View from above orbital plane
View from above orbital plane
View from above satellite
View from above satellite

Ground track
Ground track

The orbit data is extracted from the following two-line orbital elements,

1 23439U 94085A   15146.89971473 -.00000033  00000-0  28060-3 0  9998
2 23439 064.8205 355.8940 0153532 016.7556 343.8362 11.27563162840758
Epoch (UTC): 26 May 2015 21:35:35
Eccentricity: 0.0153532
inclination: 64.8205°
perigee height: 1893 km
apogee height: 2151 km
right ascension of ascending node: 355.8940°
argument of perigee: 16.7556°
revolutions per day: 11.27563162
mean anomaly at epoch: 343.8362°
orbit number at epoch: 84075

The dashed part of the orbit path shows where the satellite is in the earth's shadow,  

DLR